Regional Weather Roundup
Issued by NWS Charleston, SC

Current Version | Previous Version | Text Only | Print | Product List | Glossary Off
Versions: 1 2 3 4 5 6 7 8 9 10 11 12 13 14 15 16 17 18 19 20 21 22 23 24 25 26 27 28 29 30 31 32 33 34 35 36 37 38 39 40 41 42 43 44 45 46 47 48 49 50

000
ASUS42 KCHS 010110
RWRCHS
REGIONAL WEATHER ROUNDUP
NATIONAL WEATHER SERVICE CHARLESTON SC
900 PM EDT TUE SEP 30 2014

NOTE: "FAIR" INDICATES FEW OR NO CLOUDS BELOW 12,000 FEET WITH NO
SIGNIFICANT WEATHER AND/OR OBSTRUCTIONS TO VISIBILITY.

NOT ALL STATIONS ARE QUALITY CONTROLLED BY THE NATIONAL
WEATHER SERVICE. USE DATA WITH CAUTION...ESPECIALLY
DEWPOINT OBSERVATIONS.

SCZ027-030-031-034>040-042>050-010200-
...SOUTH CAROLINA...

CITY           SKY/WX    TMP DP  RH WIND       PRES   REMARKS
N CHARLESTON   FAIR      71  65  81 CALM      29.89R
WATERFRONT PRK   N/A     73 N/A N/A W3          N/A
FORT JOHNSON   NOT AVBL
MOUNT PLEASANT FAIR      68  66  94 CALM      29.89R
JOHNS ISLAND   CLEAR     70  70 100 CALM      29.89R
PINOPOLIS        N/A     77  70  78 MISG      29.80R
MONCKS CORNER  FAIR      70  70 100 CALM      29.89R
SUMMERVILLE    FAIR      68  68 100 CALM      29.90R
BEAUFORT MCAS  FAIR      71  67  87 CALM      29.89R
BEAUFORT ARPT  FAIR      70  68  94 CALM      29.89R
HILTON HEAD IS FAIR      70  66  88 CALM      29.90R
GEORGETOWN     NOT AVBL
WALTERBORO     FAIR      70 N/A N/A CALM      29.90R
ORANGEBURG     FAIR      68  65  90 CALM      29.90R
BARNWELL       FAIR      70  66  88 CALM      29.90R
AIKEN          FAIR      68  68 100 CALM      29.94R
MANNING        FAIR      68 N/A N/A CALM      29.89R
KINGSTREE      NOT AVBL
COLUMBIA       FAIR      73  63  70 CALM      29.89R
SUMTER         FAIR      70  64  81 CALM      29.88R
FLORENCE       FAIR      69  65  86 CALM      29.88R
MYRTLE BEACH   NOT AVBL
N MYRTLE BEACH FAIR      69  65  86 CALM      29.88R

$$

GAZ063-065-086>088-099>101-113>116-118-119-134-136>141-150-010200-
...GEORGIA...

CITY           SKY/WX    TMP DP  RH WIND       PRES   REMARKS
SAVANNAH ARPT  PTCLDY    74  67  78 S5        29.90R
HUNTER AAF     CLEAR     70  68  93 CALM      29.88R
FORT STEWART   CLEAR     70  68  93 CALM      29.89R
STATESBORO     NOT AVBL
SYLVANIA       CLEAR     71  70  96 CALM      29.90R
CLAXTON        FAIR      72  72 100 CALM      29.90R
THOMSON        CLEAR     69  69 100 CALM      29.96R
AUGUSTA-BUSH   PTCLDY    67  65  93 CALM      29.89R
AUGUSTA-DANIEL CLEAR     75  64  68 NW5       29.91R
SWAINSBORO     FAIR      72  72 100 CALM      29.91R
VIDALIA        CLEAR     72  68  88 CALM      29.91R
ALMA           CLOUDY    74  69  85 CALM      29.90R
WAYCROSS       CLOUDY    77  74  91 CALM      29.90R
JESUP          FAIR      72  70  94 CALM      29.90R
BRUNSWICK      CLEAR     70  68  94 CALM      29.90R
SAINT SIMONS   CLEAR     72  67  84 NE3       29.89R

$$

SCZ027-028-034-036>038-045-046-048>050-GAZ119-141-010200-
...LAKE AND SUPPLEMENTAL COASTAL OBSERVATIONS...

STATION/POSITION TIME  TEMP    WIND        PRES    WAVE   SWELL
                       AIR SEA DIR/SP/G            HT/PER HT/PER/DIR
                 (UTC) (F)     (DEG/KT/KT) (MB)    (FT/S) (FT/S/D)
UPR LAKE MARION  NOT AVBL
WINYAH BAY       0000   72     310/  1     1011.0S
LAKE MURRAY      0000   73        CALM     1011.5R
ACE BASIN NERRS  0000   70        CALM     1012.0R
FORT PULASKI     0100   72        CALM     1012.3R
SAPELO ISLAND    NOT AVBL

$$

ANZ835-935-AMZ111-154-330-350-352-354-374-450-454-472-010200-
...C-MAN AND BUOY OBSERVATIONS...

STATION/POSITION TIME  TEMP    WIND        PRES    WAVE   SWELL
                       AIR SEA DIR/SP/G            HT/PER HT/PER/DIR
                 (UTC) (F)     (DEG/KT/KT) (MB)    (FT/S) (FT/S/D)
FOLLY BEACH CMAN 0000   72     300/  3/  4 1012.0R
BUOY 41004       0100   77 81   30/ 10/ 12 1011.1R   4/ 6   3/ 6
BUOY 41008       0100   76 79   60/ 10/ 14 1011.9R   3/ 6   3/ 70/ 6
5E ST. MARYS GA  0100      79                N/A     3/ 6
FRYING PAN BUOY  NOT AVBL
BUOY 41025       0100   72     350/ 17/ 21 1010.4R   4/ 6   2/ 70/ 9
CAPE LOOKOUT NC  0000   72      20/  9/ 11 1010.8R
BUOY 41002       NOT AVBL
BUOY 41010       0100   80 84  300/  6/  8 1010.2R   3/ 8   2/ 90/ 8
BUOY 41012       NOT AVBL
ST AUGUSTINE FL  0100   76      10/ 15/ 18 1012.2R
CAPERS NEARSHORE 0000   74      60/  4/  6   N/A
FRIPP NEARSHORE  NOT AVBL


$$



USA.gov is the U.S. government's official web portal to all federal, state and local government web resources and services.